Location: Lac de la Montagne noire
(46.1952°N, 74.2701°W)
Time: 08:37:34
(UTC-05:00)

ISS - Visible Passes

Search period start: 19 February 2018 00:00
Search period end: 01 March 2018 00:00
Orbit: 403 x 407 km, 51.6° (Epoch: 20 February)

Date Brightness Start Highest point End Pass type
(mag) Time Alt. Az. Time Alt. Az. Time Alt. Az.
25 Feb -0.8 05:52:48 10° SSE 05:54:25 13° SE 05:56:03 10° ESE visible
27 Feb -1.8 05:43:13 10° SSW 05:46:03 27° SE 05:48:53 10° E visible
28 Feb -1.1 04:51:50 10° S 04:53:56 16° SE 04:56:02 10° E visible
